Вернуться в каталог

STARLINK-4086

АктивенСвязьVLEO
NORAD 52833·PAYLOAD·🇺🇸 United States

Запущен Jun 17, 2022 с Cape Canaveral Space Force Station

Loading…

Ближайшие Пролёты (ближайшие 24 часа)

TLE

СвежийSource: CelesTrak SupGP

Эпоха: Sep 15, 2026, 01:21 UTC

1 52833C 22062D   26258.05673611  .00008713  00000+0  33819-3 0  2588
2 52833  53.1561 256.8575 0002982  35.4408 300.3128 15.25557954    13

Отслеживайте STARLINK-4086 в реальном времени с AllMySat

Download on the App Store